sat.trackr.live / text

‹ back to catalog

STARLINK-5454

NORAD 54774 · 2022-175S

PAYLOAD ACTIVE UNKNOWN

§ Identity

Operator
Country
US
Launch date
2022-12-17
Launch site
AFETR
Launch vehicle
Mass (kg)
RCS (m²)

Purposes: comms

External: N2YO · Heavens-Above · Gunter

§ Orbital elements

Epoch: 2026-09-19T13:19:03.860256Z

Period
93.85 min
Inclination
53.1588°
Eccentricity
0.0001257
Mean motion
15.34401029 rev/d
Perigee alt
461.8 km
Apogee alt
463.6 km
Semi-major
6,840.8 km
B*
-7.4620e-5
RAAN
224.3533°
Arg perigee
86.7897°
Mean anomaly
273.3250°
Rev number
20,959

§ Raw data

STARLINK-54541 54774U 22175S   26262.55490579 -.00002897  00000+0 -74620-4 0  99962 54774  53.1588 224.3533 0001257  86.7897 273.3250 15.34401029209597

JSON: /api/v1/satellites/54774 · /tle

For live sub-satellite position, see the globe view (requires WebGL).

§ Visibility from observer

Set your observer location to see the next 7 days of passes ≥ 10°. The values pass through the URL so the page stays shareable.

No JS? Fill the form by hand. The geolocation button needs JavaScript.